Flag for United Kingdom Weather past 2 weeks in Cheltenham, England, United Kingdom

Now
61 °F

Scattered showers. Scattered clouds.


Feels Like: 61 °F
Forecast: 48 / 61 °F
Wind: 7 mph from North

Location: Staverton Private

Current Time: Sep 3, 2015 at 2:36:53 PM

Latest Report: Sep 3, 2015 at 1:50 PM


Visibility: N/A

Pressure: 30.01 "Hg

Humidity: 63%

Dew point: 48 °F

Location of CheltenhamLocation

Historic Weather in Cheltenham — Graph

°F

Cheltenham temperature yesterday

Maximum temperature yesterday: 64 °F (at 3:20 PM)
Minimum temperature yesterday: 48 °F (at 6:50 AM)
Average temperature yesterday: 58 °F

Past Weeks' High & Low Weather Summary

 TemperatureHumidityPressure
High84 °F (Aug 22, 3:20 PM)100% (Aug 24, 6:50 AM)30.12 "Hg (Aug 24, 6:50 AM)
Low48 °F (Sep 2, 6:50 AM)45% (Aug 22, 3:50 PM)29.50 "Hg (Aug 23, 11:20 AM)
Average63 °F78%29.88 "Hg
* Reported Aug 19 1:20 PM — Sep 3 1:20 PM, Cheltenham, Weather by CustomWeather, © 2015

Note: Actual official high and low records may vary slightly from our data, if they occured in-between our weather recording intervals... More about our weather records

Advertising

Cheltenham weather history for previous 24 hours

 ConditionsComfort  
Time TempWeatherWind HumidityBarometerVisibility
1:20 PM
Thu, Sep 3
59 °FScattered showers. Passing clouds.6 mph68%30.01 "HgN/A
12:50 PM57 °FSprinkles. Scattered clouds.6 mph72%30.01 "HgN/A
12:20 PM59 °FScattered clouds.6 mph63%30.01 "HgN/A
11:50 AM59 °FPassing clouds.6 mph72%30.01 "HgN/A
11:20 AM57 °FPassing clouds.6 mph72%30.01 "HgN/A
10:50 AM57 °FPassing clouds.6 mph72%30.01 "HgN/A
10:20 AM57 °FPassing clouds.3 mph72%30.01 "HgN/A
9:50 AM55 °FPassing clouds.2 mph77%30.01 "HgN/A
9:20 AM54 °FPassing clouds.3 mph82%30.01 "HgN/A
8:50 AM54 °FPassing clouds.3 mph77%30.01 "HgN/A
8:20 AM54 °FPassing clouds.3 mph82%30.01 "HgN/A
7:50 AM54 °FPassing clouds.2 mph82%30.01 "HgN/A
7:20 AM52 °FPassing clouds.3 mph88%30.01 "HgN/A
6:50 AM52 °FPassing clouds.2 mph82%30.01 "HgN/A
6:50 PM
Wed, Sep 2
59 °FScattered showers. Scattered clouds.6 mph77%30.04 "HgN/A
6:20 PM59 °FScattered showers. Scattered clouds.7 mph77%30.04 "HgN/A
5:50 PM59 °FScattered showers. Passing clouds.7 mph77%30.04 "HgN/A
5:20 PM59 °FScattered showers. Passing clouds.8 mph72%30.04 "HgN/A
4:50 PM59 °FScattered showers. Passing clouds.9 mph72%30.04 "HgN/A
4:20 PM61 °FScattered showers. Passing clouds.9 mph63%30.04 "HgN/A
3:50 PM64 °FScattered showers. Scattered clouds.9 mph64%30.04 "HgN/A
3:20 PM64 °FScattered clouds.5 mph56%30.04 "HgN/A
2:50 PM63 °FScattered clouds.No wind64%30.07 "HgN/A
2:20 PM63 °FScattered clouds.No wind64%30.07 "HgN/A
Weather by CustomWeather, © 2015

See weather overviewHow to use our weather pages